Year,Month,Day,Hour,Minute,Value (Times are PST for temperature in C)
2015,06,27,00,00,20.80
2015,06,27,00,01,20.80
2015,06,27,00,02,20.70
2015,06,27,00,03,20.70
2015,06,27,00,04,20.70
2015,06,27,00,05,20.70
2015,06,27,00,06,20.70
2015,06,27,00,07,20.70
2015,06,27,00,08,20.70
2015,06,27,00,09,20.70
2015,06,27,00,10,20.70
2015,06,27,00,11,20.70
2015,06,27,00,12,20.70
2015,06,27,00,13,20.60
2015,06,27,00,14,20.60
2015,06,27,00,15,20.60
2015,06,27,00,16,20.60
2015,06,27,00,17,20.60
2015,06,27,00,18,20.60
2015,06,27,00,19,20.60
2015,06,27,00,20,20.60
2015,06,27,00,21,20.60
2015,06,27,00,22,20.60
2015,06,27,00,23,20.50
2015,06,27,00,24,20.50
2015,06,27,00,25,20.50
2015,06,27,00,26,20.40
2015,06,27,00,27,20.40
2015,06,27,00,28,20.40
2015,06,27,00,29,20.40
2015,06,27,00,30,20.40
2015,06,27,00,31,20.40
2015,06,27,00,32,20.40
2015,06,27,00,33,20.40
2015,06,27,00,34,20.40
2015,06,27,00,35,20.30
2015,06,27,00,36,20.30
2015,06,27,00,37,20.30
2015,06,27,00,38,20.30
2015,06,27,00,39,20.30
2015,06,27,00,40,20.30
2015,06,27,00,41,20.20
2015,06,27,00,42,20.20
2015,06,27,00,43,20.20
2015,06,27,00,44,20.10
2015,06,27,00,45,20.10
2015,06,27,00,46,20.10
2015,06,27,00,47,20.10
2015,06,27,00,48,20.10
2015,06,27,00,49,20.00
2015,06,27,00,50,20.00
2015,06,27,00,51,20.00
2015,06,27,00,52,20.00
2015,06,27,00,53,19.90
2015,06,27,00,54,19.90
2015,06,27,00,55,19.90
2015,06,27,00,56,19.90
2015,06,27,00,57,19.90
2015,06,27,00,58,19.80
2015,06,27,00,59,19.80
2015,06,27,01,00,19.80
2015,06,27,01,01,19.80
2015,06,27,01,02,19.80
2015,06,27,01,03,19.80
2015,06,27,01,04,19.80
2015,06,27,01,05,19.80
2015,06,27,01,06,19.80
2015,06,27,01,07,19.80
2015,06,27,01,08,19.80
2015,06,27,01,09,19.70
2015,06,27,01,10,19.70
2015,06,27,01,11,19.70
2015,06,27,01,12,19.70
2015,06,27,01,13,19.70
2015,06,27,01,14,19.60
2015,06,27,01,15,19.60
2015,06,27,01,16,19.60
2015,06,27,01,17,19.60
2015,06,27,01,18,19.60
2015,06,27,01,19,19.50
2015,06,27,01,20,19.50
2015,06,27,01,21,19.50
2015,06,27,01,22,19.50
2015,06,27,01,23,19.50
2015,06,27,01,24,19.50
2015,06,27,01,25,19.50
2015,06,27,01,26,19.50
2015,06,27,01,27,19.50
2015,06,27,01,28,19.40
2015,06,27,01,29,19.40
2015,06,27,01,30,19.40
2015,06,27,01,31,19.40
2015,06,27,01,32,19.40
2015,06,27,01,33,19.40
2015,06,27,01,34,19.40
2015,06,27,01,35,19.40
2015,06,27,01,36,19.30
2015,06,27,01,37,19.30
2015,06,27,01,38,19.30
2015,06,27,01,39,19.30
2015,06,27,01,40,19.30
2015,06,27,01,41,19.30
2015,06,27,01,42,19.20
2015,06,27,01,43,19.20
2015,06,27,01,44,19.20
2015,06,27,01,45,19.20
2015,06,27,01,46,19.10
2015,06,27,01,47,19.10
2015,06,27,01,48,19.10
2015,06,27,01,49,19.00
2015,06,27,01,50,19.00
2015,06,27,01,51,18.90
2015,06,27,01,52,18.90
2015,06,27,01,53,18.90
2015,06,27,01,54,18.90
2015,06,27,01,55,18.90
2015,06,27,01,56,18.90
2015,06,27,01,57,18.90
2015,06,27,01,58,18.90
2015,06,27,01,59,18.80
2015,06,27,02,00,18.80
2015,06,27,02,01,18.80
2015,06,27,02,02,18.80
2015,06,27,02,03,18.80
2015,06,27,02,04,18.80
2015,06,27,02,05,18.80
2015,06,27,02,06,18.80
2015,06,27,02,07,18.80
2015,06,27,02,08,18.80
2015,06,27,02,09,18.80
2015,06,27,02,10,18.80
2015,06,27,02,11,18.80
2015,06,27,02,12,18.80
2015,06,27,02,13,18.80
2015,06,27,02,14,18.80
2015,06,27,02,15,18.80
2015,06,27,02,16,18.70
2015,06,27,02,17,18.70
2015,06,27,02,18,18.70
2015,06,27,02,19,18.70
2015,06,27,02,20,18.70
2015,06,27,02,21,18.70
2015,06,27,02,22,18.70
2015,06,27,02,23,18.70
2015,06,27,02,24,18.70
2015,06,27,02,25,18.70
2015,06,27,02,26,18.60
2015,06,27,02,27,18.60
2015,06,27,02,28,18.60
2015,06,27,02,29,18.60
2015,06,27,02,30,18.60
2015,06,27,02,31,18.60
2015,06,27,02,32,18.60
2015,06,27,02,33,18.60
2015,06,27,02,34,18.50
2015,06,27,02,35,18.50
2015,06,27,02,36,18.50
2015,06,27,02,37,18.50
2015,06,27,02,38,18.50
2015,06,27,02,39,18.50
2015,06,27,02,40,18.50
2015,06,27,02,41,18.50
2015,06,27,02,42,18.50
2015,06,27,02,43,18.50
2015,06,27,02,44,18.40
2015,06,27,02,45,18.40
2015,06,27,02,46,18.40
2015,06,27,02,47,18.40
2015,06,27,02,48,18.40
2015,06,27,02,49,18.40
2015,06,27,02,50,18.40
2015,06,27,02,51,18.40
2015,06,27,02,52,18.40
2015,06,27,02,53,18.40
2015,06,27,02,54,18.30
2015,06,27,02,55,18.30
2015,06,27,02,56,18.30
2015,06,27,02,57,18.30
2015,06,27,02,58,18.30
2015,06,27,02,59,18.30
2015,06,27,03,00,18.30
2015,06,27,03,01,18.30
2015,06,27,03,02,18.30
2015,06,27,03,03,18.30
2015,06,27,03,04,18.30
2015,06,27,03,05,18.20
2015,06,27,03,06,18.20
2015,06,27,03,07,18.20
2015,06,27,03,08,18.20
2015,06,27,03,09,18.20
2015,06,27,03,10,18.20
2015,06,27,03,11,18.20
2015,06,27,03,12,18.20
2015,06,27,03,13,18.20
2015,06,27,03,14,18.20
2015,06,27,03,15,18.20
2015,06,27,03,16,18.20
2015,06,27,03,17,18.20
2015,06,27,03,18,18.10
2015,06,27,03,19,18.10
2015,06,27,03,20,18.10
2015,06,27,03,21,18.10
2015,06,27,03,22,18.10
2015,06,27,03,23,18.10
2015,06,27,03,24,18.10
2015,06,27,03,25,18.10
2015,06,27,03,26,18.10
2015,06,27,03,27,18.10
2015,06,27,03,28,18.10
2015,06,27,03,29,18.10
2015,06,27,03,30,18.00
2015,06,27,03,31,18.00
2015,06,27,03,32,18.00
2015,06,27,03,33,18.00
2015,06,27,03,34,17.90
2015,06,27,03,35,17.90
2015,06,27,03,36,17.90
2015,06,27,03,37,17.90
2015,06,27,03,38,17.90
2015,06,27,03,39,17.90
2015,06,27,03,40,17.90
2015,06,27,03,41,17.90
2015,06,27,03,42,17.80
2015,06,27,03,43,17.80
2015,06,27,03,44,17.80
2015,06,27,03,45,17.80
2015,06,27,03,46,17.80
2015,06,27,03,47,17.80
2015,06,27,03,48,17.80
2015,06,27,03,49,17.70
2015,06,27,03,50,17.70
2015,06,27,03,51,17.70
2015,06,27,03,52,17.70
2015,06,27,03,53,17.70
2015,06,27,03,54,17.70
2015,06,27,03,55,17.70
2015,06,27,03,56,17.60
2015,06,27,03,57,17.60
2015,06,27,03,58,17.60
2015,06,27,03,59,17.60
2015,06,27,04,00,17.60
2015,06,27,04,01,17.60
2015,06,27,04,02,17.60
2015,06,27,04,03,17.50
2015,06,27,04,04,17.50
2015,06,27,04,05,17.50
2015,06,27,04,06,17.50
2015,06,27,04,07,17.50
2015,06,27,04,08,17.50
2015,06,27,04,09,17.40
2015,06,27,04,10,17.40
2015,06,27,04,11,17.40
2015,06,27,04,12,17.40
2015,06,27,04,13,17.40
2015,06,27,04,14,17.40
2015,06,27,04,15,17.40
2015,06,27,04,16,17.40
2015,06,27,04,17,17.40
2015,06,27,04,18,17.30
2015,06,27,04,19,17.30
2015,06,27,04,20,17.30
2015,06,27,04,21,17.30
2015,06,27,04,22,17.30
2015,06,27,04,23,17.30
2015,06,27,04,24,17.30
2015,06,27,04,25,17.30
2015,06,27,04,26,17.30
2015,06,27,04,27,17.30
2015,06,27,04,28,17.30
2015,06,27,04,29,17.30
2015,06,27,04,30,17.30
2015,06,27,04,31,17.30
2015,06,27,04,32,17.20
2015,06,27,04,33,17.20
2015,06,27,04,34,17.20
2015,06,27,04,35,17.20
2015,06,27,04,36,17.20
2015,06,27,04,37,17.20
2015,06,27,04,38,17.20
2015,06,27,04,39,17.20
2015,06,27,04,40,17.20
2015,06,27,04,41,17.20
2015,06,27,04,42,17.20
2015,06,27,04,43,17.10
2015,06,27,04,44,17.10
2015,06,27,04,45,17.10
2015,06,27,04,46,17.10
2015,06,27,04,47,17.10
2015,06,27,04,48,17.10
2015,06,27,04,49,17.10
2015,06,27,04,50,17.10
2015,06,27,04,51,17.00
2015,06,27,04,52,17.00
2015,06,27,04,53,17.00
2015,06,27,04,54,17.00
2015,06,27,04,55,17.00
2015,06,27,04,56,16.90
2015,06,27,04,57,16.90
2015,06,27,04,58,16.90
2015,06,27,04,59,16.90
2015,06,27,05,00,16.90
2015,06,27,05,01,16.80
2015,06,27,05,02,16.80
2015,06,27,05,03,16.80
2015,06,27,05,04,16.80
2015,06,27,05,05,16.80
2015,06,27,05,06,16.80
2015,06,27,05,07,16.80
2015,06,27,05,08,16.70
2015,06,27,05,09,16.70
2015,06,27,05,10,16.70
2015,06,27,05,11,16.70
2015,06,27,05,12,16.70
2015,06,27,05,13,16.60
2015,06,27,05,14,16.60
2015,06,27,05,15,16.60
2015,06,27,05,16,16.60
2015,06,27,05,17,16.60
2015,06,27,05,18,16.50
2015,06,27,05,19,16.50
2015,06,27,05,20,16.50
2015,06,27,05,21,16.50
2015,06,27,05,22,16.50
2015,06,27,05,23,16.50
2015,06,27,05,24,16.50
2015,06,27,05,25,16.50
2015,06,27,05,26,16.50
2015,06,27,05,27,16.40
2015,06,27,05,28,16.40
2015,06,27,05,29,16.40
2015,06,27,05,30,16.40
2015,06,27,05,31,16.40
2015,06,27,05,32,16.40
2015,06,27,05,33,16.40
2015,06,27,05,34,16.40
2015,06,27,05,35,16.40
2015,06,27,05,36,16.40
2015,06,27,05,37,16.40
2015,06,27,05,38,16.40
2015,06,27,05,39,16.40
2015,06,27,05,40,16.40
2015,06,27,05,41,16.40
2015,06,27,05,42,16.40
2015,06,27,05,43,16.40
2015,06,27,05,44,16.40
2015,06,27,05,45,16.40
2015,06,27,05,46,16.40
2015,06,27,05,47,16.40
2015,06,27,05,48,16.40
2015,06,27,05,49,16.40
2015,06,27,05,50,16.40
2015,06,27,05,51,16.40
2015,06,27,05,52,16.40
2015,06,27,05,53,16.50
2015,06,27,05,54,16.50
2015,06,27,05,55,16.50
2015,06,27,05,56,16.50
2015,06,27,05,57,16.60
2015,06,27,05,58,16.60
2015,06,27,05,59,16.60
2015,06,27,06,00,16.70
2015,06,27,06,01,16.70
2015,06,27,06,02,16.70
2015,06,27,06,03,16.70
2015,06,27,06,04,16.70
2015,06,27,06,05,16.70
2015,06,27,06,06,16.70
2015,06,27,06,07,16.70
2015,06,27,06,08,16.70
2015,06,27,06,09,16.70
2015,06,27,06,10,16.70
2015,06,27,06,11,16.70
2015,06,27,06,12,16.70
2015,06,27,06,13,16.70
2015,06,27,06,14,16.70
2015,06,27,06,15,16.70
2015,06,27,06,16,16.70
2015,06,27,06,17,16.70
2015,06,27,06,18,16.70
2015,06,27,06,19,16.70
2015,06,27,06,20,16.70
2015,06,27,06,21,16.70
2015,06,27,06,22,16.70
2015,06,27,06,23,16.70
2015,06,27,06,24,16.70
2015,06,27,06,25,16.70
2015,06,27,06,26,16.80
2015,06,27,06,27,16.80
2015,06,27,06,28,16.80
2015,06,27,06,29,16.80
2015,06,27,06,30,16.80
2015,06,27,06,31,16.80
2015,06,27,06,32,16.80
2015,06,27,06,33,16.80
2015,06,27,06,34,16.90
2015,06,27,06,35,16.90
2015,06,27,06,36,16.90
2015,06,27,06,37,16.90
2015,06,27,06,38,16.90
2015,06,27,06,39,16.90
2015,06,27,06,40,17.00
2015,06,27,06,41,17.00
2015,06,27,06,42,17.00
2015,06,27,06,43,17.00
2015,06,27,06,44,17.10
2015,06,27,06,45,17.10
2015,06,27,06,46,17.10
2015,06,27,06,47,17.10
2015,06,27,06,48,17.10
2015,06,27,06,49,17.10
2015,06,27,06,50,17.10
2015,06,27,06,51,17.10
2015,06,27,06,52,17.20
2015,06,27,06,53,17.20
2015,06,27,06,54,17.20
2015,06,27,06,55,17.20
2015,06,27,06,56,17.20
2015,06,27,06,57,17.20
2015,06,27,06,58,17.20
2015,06,27,06,59,17.20
2015,06,27,07,00,17.30
2015,06,27,07,01,17.30
2015,06,27,07,02,17.30
2015,06,27,07,03,17.30
2015,06,27,07,04,17.30
2015,06,27,07,05,17.30
2015,06,27,07,06,17.30
2015,06,27,07,07,17.30
2015,06,27,07,08,17.40
2015,06,27,07,09,17.40
2015,06,27,07,10,17.40
2015,06,27,07,11,17.40
2015,06,27,07,12,17.40
2015,06,27,07,13,17.50
2015,06,27,07,14,17.50
2015,06,27,07,15,17.60
2015,06,27,07,16,17.60
2015,06,27,07,17,17.60
2015,06,27,07,18,17.70
2015,06,27,07,19,17.70
2015,06,27,07,20,17.70
2015,06,27,07,21,17.70
2015,06,27,07,22,17.80
2015,06,27,07,23,17.80
2015,06,27,07,24,17.80
2015,06,27,07,25,17.90
2015,06,27,07,26,17.90
2015,06,27,07,27,18.00
2015,06,27,07,28,18.00
2015,06,27,07,29,18.10
2015,06,27,07,30,18.10
2015,06,27,07,31,18.10
2015,06,27,07,32,18.20
2015,06,27,07,33,18.20
2015,06,27,07,34,18.20
2015,06,27,07,35,18.20
2015,06,27,07,36,18.20
2015,06,27,07,37,18.30
2015,06,27,07,38,18.30
2015,06,27,07,39,18.30
2015,06,27,07,40,18.40
2015,06,27,07,41,18.40
2015,06,27,07,42,18.40
2015,06,27,07,43,18.40
2015,06,27,07,44,18.40
2015,06,27,07,45,18.50
2015,06,27,07,46,18.50
2015,06,27,07,47,18.50
2015,06,27,07,48,18.60
2015,06,27,07,49,18.60
2015,06,27,07,50,18.60
2015,06,27,07,51,18.70
2015,06,27,07,52,18.70
2015,06,27,07,53,18.80
2015,06,27,07,54,18.80
2015,06,27,07,55,18.90
2015,06,27,07,56,18.90
2015,06,27,07,57,19.00
2015,06,27,07,58,19.10
2015,06,27,07,59,19.10
2015,06,27,08,00,19.20
2015,06,27,08,01,19.20
2015,06,27,08,02,19.20
2015,06,27,08,03,19.20
2015,06,27,08,04,19.30
2015,06,27,08,05,19.30
2015,06,27,08,06,19.30
2015,06,27,08,07,19.30
2015,06,27,08,08,19.30
2015,06,27,08,09,19.40
2015,06,27,08,10,19.40
2015,06,27,08,11,19.50
2015,06,27,08,12,19.50
2015,06,27,08,13,19.60
2015,06,27,08,14,19.70
2015,06,27,08,15,19.80
2015,06,27,08,16,19.90
2015,06,27,08,17,20.00
2015,06,27,08,18,20.00
2015,06,27,08,19,20.10
2015,06,27,08,20,20.20
2015,06,27,08,21,20.30
2015,06,27,08,22,20.40
2015,06,27,08,23,20.50
2015,06,27,08,24,20.60
2015,06,27,08,25,20.60
2015,06,27,08,26,20.70
2015,06,27,08,27,20.80
2015,06,27,08,28,20.80
2015,06,27,08,29,20.90
2015,06,27,08,30,20.90
2015,06,27,08,31,21.00
2015,06,27,08,32,21.10
2015,06,27,08,33,21.20
2015,06,27,08,34,21.30
2015,06,27,08,35,21.30
2015,06,27,08,36,21.40
2015,06,27,08,37,21.50
2015,06,27,08,38,21.50
2015,06,27,08,39,21.60
2015,06,27,08,40,21.60
2015,06,27,08,41,21.60
2015,06,27,08,42,21.70
2015,06,27,08,43,21.70
2015,06,27,08,44,21.80
2015,06,27,08,45,21.80
2015,06,27,08,46,21.90
2015,06,27,08,47,21.90
2015,06,27,08,48,22.00
2015,06,27,08,49,22.10
2015,06,27,08,50,22.10
2015,06,27,08,51,22.20
2015,06,27,08,52,22.30
2015,06,27,08,53,22.40
2015,06,27,08,54,22.50
2015,06,27,08,55,22.50
2015,06,27,08,56,22.60
2015,06,27,08,57,22.70
2015,06,27,08,58,22.80
2015,06,27,08,59,22.90
2015,06,27,09,00,23.00
2015,06,27,09,01,23.10
2015,06,27,09,02,23.20
2015,06,27,09,03,23.30
2015,06,27,09,04,23.40
2015,06,27,09,05,23.40
2015,06,27,09,06,23.50
2015,06,27,09,07,23.50
2015,06,27,09,08,23.60
2015,06,27,09,09,23.60
2015,06,27,09,10,23.60
2015,06,27,09,11,23.70
2015,06,27,09,12,23.70
2015,06,27,09,13,23.70
2015,06,27,09,14,23.80
2015,06,27,09,15,23.80
2015,06,27,09,16,23.80
2015,06,27,09,17,23.90
2015,06,27,09,18,23.90
2015,06,27,09,19,24.00
2015,06,27,09,20,24.10
2015,06,27,09,21,24.20
2015,06,27,09,22,24.30
2015,06,27,09,23,24.30
2015,06,27,09,24,24.30
2015,06,27,09,25,24.40
2015,06,27,09,26,24.40
2015,06,27,09,27,24.50
2015,06,27,09,28,24.50
2015,06,27,09,29,24.60
2015,06,27,09,30,24.70
2015,06,27,09,31,24.70
2015,06,27,09,32,24.70
2015,06,27,09,33,24.80
2015,06,27,09,34,24.80
2015,06,27,09,35,24.80
2015,06,27,09,36,24.90
2015,06,27,09,37,24.90
2015,06,27,09,38,24.90
2015,06,27,09,39,24.90
2015,06,27,09,40,24.90
2015,06,27,09,41,24.90
2015,06,27,09,42,24.90
2015,06,27,09,43,24.90
2015,06,27,09,44,24.90
2015,06,27,09,45,24.90
2015,06,27,09,46,24.90
2015,06,27,09,47,25.00
2015,06,27,09,48,25.00
2015,06,27,09,49,25.00
2015,06,27,09,50,25.10
2015,06,27,09,51,25.10
2015,06,27,09,52,25.10
2015,06,27,09,53,25.10
2015,06,27,09,54,25.20
2015,06,27,09,55,25.20
2015,06,27,09,56,25.10
2015,06,27,09,57,25.10
2015,06,27,09,58,25.10
2015,06,27,09,59,25.10
2015,06,27,10,00,25.10
2015,06,27,10,01,25.10
2015,06,27,10,02,25.10
2015,06,27,10,03,25.00
2015,06,27,10,04,25.00
2015,06,27,10,05,25.00
2015,06,27,10,06,24.90
2015,06,27,10,07,24.90
2015,06,27,10,08,24.90
2015,06,27,10,09,24.90
2015,06,27,10,10,24.90
2015,06,27,10,11,25.00
2015,06,27,10,12,25.00
2015,06,27,10,13,25.10
2015,06,27,10,14,25.20
2015,06,27,10,15,25.30
2015,06,27,10,16,25.30
2015,06,27,10,17,25.40
2015,06,27,10,18,25.40
2015,06,27,10,19,25.50
2015,06,27,10,20,25.60
2015,06,27,10,21,25.50
2015,06,27,10,22,25.50
2015,06,27,10,23,25.40
2015,06,27,10,24,25.40
2015,06,27,10,25,25.40
2015,06,27,10,26,25.30
2015,06,27,10,27,25.30
2015,06,27,10,28,25.30
2015,06,27,10,29,25.20
2015,06,27,10,30,25.20
2015,06,27,10,31,25.20
2015,06,27,10,32,25.20
2015,06,27,10,33,25.20
2015,06,27,10,34,25.20
2015,06,27,10,35,25.20
2015,06,27,10,36,25.20
2015,06,27,10,37,25.30
2015,06,27,10,38,25.30
2015,06,27,10,39,25.40
2015,06,27,10,40,25.50
2015,06,27,10,41,25.60
2015,06,27,10,42,25.70
2015,06,27,10,43,25.80
2015,06,27,10,44,25.90
2015,06,27,10,45,25.90
2015,06,27,10,46,25.90
2015,06,27,10,47,25.90
2015,06,27,10,48,25.90
2015,06,27,10,49,25.90
2015,06,27,10,50,25.90
2015,06,27,10,51,25.90
2015,06,27,10,52,26.10
2015,06,27,10,53,26.20
2015,06,27,10,54,26.40
2015,06,27,10,55,26.50
2015,06,27,10,56,26.70
2015,06,27,10,57,26.80
2015,06,27,10,58,27.00
2015,06,27,10,59,27.20
2015,06,27,11,00,27.30
2015,06,27,11,01,27.40
2015,06,27,11,02,27.50
2015,06,27,11,03,27.50
2015,06,27,11,04,27.60
2015,06,27,11,05,27.60
2015,06,27,11,06,27.70
2015,06,27,11,07,27.70
2015,06,27,11,08,27.80
2015,06,27,11,09,27.80
2015,06,27,11,10,27.80
2015,06,27,11,11,27.90
2015,06,27,11,12,27.90
2015,06,27,11,13,28.00
2015,06,27,11,14,28.00
2015,06,27,11,15,28.00
2015,06,27,11,16,28.10
2015,06,27,11,17,28.10
2015,06,27,11,18,28.10
2015,06,27,11,19,28.20
2015,06,27,11,20,28.20
2015,06,27,11,21,28.20
2015,06,27,11,22,28.30
2015,06,27,11,23,28.30
2015,06,27,11,24,28.30
2015,06,27,11,25,28.40
2015,06,27,11,26,28.40
2015,06,27,11,27,28.40
2015,06,27,11,28,28.50
2015,06,27,11,29,28.50
2015,06,27,11,30,28.40
2015,06,27,11,31,28.40
2015,06,27,11,32,28.40
2015,06,27,11,33,28.50
2015,06,27,11,34,28.50
2015,06,27,11,35,28.60
2015,06,27,11,36,28.60
2015,06,27,11,37,28.70
2015,06,27,11,38,28.70
2015,06,27,11,39,28.70
2015,06,27,11,40,28.70
2015,06,27,11,41,28.60
2015,06,27,11,42,28.60
2015,06,27,11,43,28.50
2015,06,27,11,44,28.60
2015,06,27,11,45,28.60
2015,06,27,11,46,28.60
2015,06,27,11,47,28.60
2015,06,27,11,48,28.60
2015,06,27,11,49,28.70
2015,06,27,11,50,28.70
2015,06,27,11,51,28.80
2015,06,27,11,52,28.80
2015,06,27,11,53,28.80
2015,06,27,11,54,28.90
2015,06,27,11,55,28.90
2015,06,27,11,56,29.00
2015,06,27,11,57,29.10
2015,06,27,11,58,29.10
2015,06,27,11,59,29.20
2015,06,27,12,00,29.20
2015,06,27,12,01,29.30
2015,06,27,12,02,29.40
2015,06,27,12,03,29.40
2015,06,27,12,04,29.50
2015,06,27,12,05,29.50
2015,06,27,12,06,29.60
2015,06,27,12,07,29.70
2015,06,27,12,08,29.70
2015,06,27,12,09,29.80
2015,06,27,12,10,29.90
2015,06,27,12,11,29.90
2015,06,27,12,12,30.00
2015,06,27,12,13,30.00
2015,06,27,12,14,30.10
2015,06,27,12,15,30.10
2015,06,27,12,16,30.20
2015,06,27,12,17,30.20
2015,06,27,12,18,30.20
2015,06,27,12,19,30.20
2015,06,27,12,20,30.20
2015,06,27,12,21,30.20
2015,06,27,12,22,30.30
2015,06,27,12,23,30.30
2015,06,27,12,24,30.30
2015,06,27,12,25,30.30
2015,06,27,12,26,30.30
2015,06,27,12,27,30.30
2015,06,27,12,28,30.30
2015,06,27,12,29,30.30
2015,06,27,12,30,30.30
2015,06,27,12,31,30.30
2015,06,27,12,32,30.40
2015,06,27,12,33,30.40
2015,06,27,12,34,30.50
2015,06,27,12,35,30.60
2015,06,27,12,36,30.60
2015,06,27,12,37,30.60
2015,06,27,12,38,30.60
2015,06,27,12,39,30.60
2015,06,27,12,40,30.70
2015,06,27,12,41,30.80
2015,06,27,12,42,30.90
2015,06,27,12,43,30.90
2015,06,27,12,44,31.00
2015,06,27,12,45,31.10
2015,06,27,12,46,31.20
2015,06,27,12,47,31.30
2015,06,27,12,48,31.30
2015,06,27,12,49,31.40
2015,06,27,12,50,31.40
2015,06,27,12,51,31.50
2015,06,27,12,52,31.50
2015,06,27,12,53,31.60
2015,06,27,12,54,31.60
2015,06,27,12,55,31.60
2015,06,27,12,56,31.70
2015,06,27,12,57,31.70
2015,06,27,12,58,31.70
2015,06,27,12,59,31.80
2015,06,27,13,00,31.80
2015,06,27,13,01,31.80
2015,06,27,13,02,31.90
2015,06,27,13,03,31.90
2015,06,27,13,04,31.90
2015,06,27,13,05,32.00
2015,06,27,13,06,32.00
2015,06,27,13,07,32.10
2015,06,27,13,08,32.20
2015,06,27,13,09,32.20
2015,06,27,13,10,32.30
2015,06,27,13,11,32.30
2015,06,27,13,12,32.40
2015,06,27,13,13,32.40
2015,06,27,13,14,32.40
2015,06,27,13,15,32.40
2015,06,27,13,16,32.40
2015,06,27,13,17,32.40
2015,06,27,13,18,32.40
2015,06,27,13,19,32.40
2015,06,27,13,20,32.40
2015,06,27,13,21,32.30
2015,06,27,13,22,32.30
2015,06,27,13,23,32.30
2015,06,27,13,24,32.30
2015,06,27,13,25,32.30
2015,06,27,13,26,32.30
2015,06,27,13,27,32.20
2015,06,27,13,28,32.20
2015,06,27,13,29,32.30
2015,06,27,13,30,32.30
2015,06,27,13,31,32.40
2015,06,27,13,32,32.40
2015,06,27,13,33,32.30
2015,06,27,13,34,32.30
2015,06,27,13,35,32.30
2015,06,27,13,36,32.30
2015,06,27,13,37,32.40
2015,06,27,13,38,32.50
2015,06,27,13,39,32.60
2015,06,27,13,40,32.70
2015,06,27,13,41,32.80
2015,06,27,13,42,32.90
2015,06,27,13,43,33.00
2015,06,27,13,44,33.10
2015,06,27,13,45,33.20
2015,06,27,13,46,33.20
2015,06,27,13,47,33.30
2015,06,27,13,48,33.30
2015,06,27,13,49,33.40
2015,06,27,13,50,33.40
2015,06,27,13,51,33.50
2015,06,27,13,52,33.50
2015,06,27,13,53,33.60
2015,06,27,13,54,33.60
2015,06,27,13,55,33.60
2015,06,27,13,56,33.60
2015,06,27,13,57,33.60
2015,06,27,13,58,33.60
2015,06,27,13,59,33.60
2015,06,27,14,00,33.60
2015,06,27,14,01,33.60
2015,06,27,14,02,33.70
2015,06,27,14,03,33.70
2015,06,27,14,04,33.70
2015,06,27,14,05,33.70
2015,06,27,14,06,33.60
2015,06,27,14,07,33.60
2015,06,27,14,08,33.60
2015,06,27,14,09,33.60
2015,06,27,14,10,33.60
2015,06,27,14,11,33.50
2015,06,27,14,12,33.50
2015,06,27,14,13,33.40
2015,06,27,14,14,33.30
2015,06,27,14,15,33.30
2015,06,27,14,16,33.30
2015,06,27,14,17,33.40
2015,06,27,14,18,33.40
2015,06,27,14,19,33.50
2015,06,27,14,20,33.50
2015,06,27,14,21,33.60
2015,06,27,14,22,33.60
2015,06,27,14,23,33.70
2015,06,27,14,24,33.70
2015,06,27,14,25,33.80
2015,06,27,14,26,33.80
2015,06,27,14,27,33.90
2015,06,27,14,28,34.00
2015,06,27,14,29,34.00
2015,06,27,14,30,34.00
2015,06,27,14,31,34.10
2015,06,27,14,32,34.10
2015,06,27,14,33,34.10
2015,06,27,14,34,34.10
2015,06,27,14,35,34.10
2015,06,27,14,36,34.20
2015,06,27,14,37,34.20
2015,06,27,14,38,34.20
2015,06,27,14,39,34.30
2015,06,27,14,40,34.30
2015,06,27,14,41,34.30
2015,06,27,14,42,34.30
2015,06,27,14,43,34.30
2015,06,27,14,44,34.30
2015,06,27,14,45,34.30
2015,06,27,14,46,34.30
2015,06,27,14,47,34.30
2015,06,27,14,48,34.30
2015,06,27,14,49,34.30
2015,06,27,14,50,34.40
2015,06,27,14,51,34.40
2015,06,27,14,52,34.50
2015,06,27,14,53,34.60
2015,06,27,14,54,34.70
2015,06,27,14,55,34.70
2015,06,27,14,56,34.80
2015,06,27,14,57,34.80
2015,06,27,14,58,34.80
2015,06,27,14,59,34.80
2015,06,27,15,00,34.80
2015,06,27,15,01,34.80
2015,06,27,15,02,34.70
2015,06,27,15,03,34.60
2015,06,27,15,04,34.60
2015,06,27,15,05,34.50
2015,06,27,15,06,34.40
2015,06,27,15,07,34.20
2015,06,27,15,08,34.00
2015,06,27,15,09,33.90
2015,06,27,15,10,33.70
2015,06,27,15,11,33.60
2015,06,27,15,12,33.50
2015,06,27,15,13,33.50
2015,06,27,15,14,33.40
2015,06,27,15,15,33.40
2015,06,27,15,16,33.40
2015,06,27,15,17,33.40
2015,06,27,15,18,33.40
2015,06,27,15,19,33.30
2015,06,27,15,20,33.20
2015,06,27,15,21,33.20
2015,06,27,15,22,33.20
2015,06,27,15,23,33.20
2015,06,27,15,24,33.20
2015,06,27,15,25,33.10
2015,06,27,15,26,33.00
2015,06,27,15,27,32.90
2015,06,27,15,28,32.90
2015,06,27,15,29,33.00
2015,06,27,15,30,33.00
2015,06,27,15,31,33.10
2015,06,27,15,32,33.10
2015,06,27,15,33,33.20
2015,06,27,15,34,33.20
2015,06,27,15,35,33.20
2015,06,27,15,36,33.10
2015,06,27,15,37,33.10
2015,06,27,15,38,33.10
2015,06,27,15,39,33.10
2015,06,27,15,40,33.10
2015,06,27,15,41,33.10
2015,06,27,15,42,33.10
2015,06,27,15,43,33.20
2015,06,27,15,44,33.20
2015,06,27,15,45,33.20
2015,06,27,15,46,33.30
2015,06,27,15,47,33.40
2015,06,27,15,48,33.40
2015,06,27,15,49,33.50
2015,06,27,15,50,33.50
2015,06,27,15,51,33.50
2015,06,27,15,52,33.60
2015,06,27,15,53,33.60
2015,06,27,15,54,33.60
2015,06,27,15,55,33.70
2015,06,27,15,56,33.70
2015,06,27,15,57,33.80
2015,06,27,15,58,33.80
2015,06,27,15,59,33.80
2015,06,27,16,00,33.80
2015,06,27,16,01,33.80
2015,06,27,16,02,33.90
2015,06,27,16,03,34.00
2015,06,27,16,04,34.00
2015,06,27,16,05,34.10
2015,06,27,16,06,34.20
2015,06,27,16,07,34.20
2015,06,27,16,08,34.20
2015,06,27,16,09,34.20
2015,06,27,16,10,34.20
2015,06,27,16,11,34.30
2015,06,27,16,12,34.30
2015,06,27,16,13,34.30
2015,06,27,16,14,34.40
2015,06,27,16,15,34.40
2015,06,27,16,16,34.50
2015,06,27,16,17,34.50
2015,06,27,16,18,34.50
2015,06,27,16,19,34.60
2015,06,27,16,20,34.60
2015,06,27,16,21,34.60
2015,06,27,16,22,34.60
2015,06,27,16,23,34.50
2015,06,27,16,24,34.40
2015,06,27,16,25,34.30
2015,06,27,16,26,34.20
2015,06,27,16,27,34.20
2015,06,27,16,28,34.30
2015,06,27,16,29,34.30
2015,06,27,16,30,34.20
2015,06,27,16,31,34.00
2015,06,27,16,32,33.90
2015,06,27,16,33,33.70
2015,06,27,16,34,33.60
2015,06,27,16,35,33.60
2015,06,27,16,36,33.50
2015,06,27,16,37,33.50
2015,06,27,16,38,33.50
2015,06,27,16,39,33.50
2015,06,27,16,40,33.40
2015,06,27,16,41,33.40
2015,06,27,16,42,33.40
2015,06,27,16,43,33.40
2015,06,27,16,44,33.40
2015,06,27,16,45,33.50
2015,06,27,16,46,33.50
2015,06,27,16,47,33.50
2015,06,27,16,48,33.50
2015,06,27,16,49,33.50
2015,06,27,16,50,33.40
2015,06,27,16,51,33.40
2015,06,27,16,52,33.40
2015,06,27,16,53,33.30
2015,06,27,16,54,33.30
2015,06,27,16,55,33.30
2015,06,27,16,56,33.30
2015,06,27,16,57,33.30
2015,06,27,16,58,33.30
2015,06,27,16,59,33.30
2015,06,27,17,00,33.30
2015,06,27,17,01,33.20
2015,06,27,17,02,33.20
2015,06,27,17,03,33.20
2015,06,27,17,04,33.10
2015,06,27,17,05,33.00
2015,06,27,17,06,33.00
2015,06,27,17,07,33.00
2015,06,27,17,08,32.90
2015,06,27,17,09,32.90
2015,06,27,17,10,32.90
2015,06,27,17,11,32.90
2015,06,27,17,12,32.90
2015,06,27,17,13,32.90
2015,06,27,17,14,32.80
2015,06,27,17,15,32.80
2015,06,27,17,16,32.80
2015,06,27,17,17,32.80
2015,06,27,17,18,32.80
2015,06,27,17,19,32.80